Location: CCZU
(31.6840°N, 119.9550°E)
Time: 16:39:46
(UTC+08:00)

Hubble Space Telescope - Pass Details

Date: 26 September 2022
Orbit: 530 x 534 km, 28.5° (Epoch: 04 December)

Event Time Altitude Azimuth Distance (km) Brightness Sun altitude
Rises 20:02:24 0° 261° (W) 2,651 5.3 -28.2°
Reaches altitude 10° 20:04:40 10° 257° (WSW) 1,762 4.1 -28.6°
Enters shadow 20:06:27 24° 248° (WSW) 1,111 2.8 -29.0°
